Terug naar catalogus

STARLINK-38033

ActiefCommunicatieSSO
NORAD 69739·PAYLOAD·🇺🇸 United States

Gelanceerd Jul 2, 2026 vanaf Vandenberg Space Force Base

Loading…

Volgende Passages (komende 24 uur)

TLE

VersSource: CelesTrak SupGP

Epoch: Sep 14, 2026, 21:41 UTC

1 69739C 26150A   26257.90395833  .00088029  00000+0  27334-2 0  2574
2 69739  97.2849  96.8601 0001813  93.6546 314.4926 15.33384811    18

Volg STARLINK-38033 in realtime met AllMySat

Download on the App Store